QFA6009 YSSY-EDDF

Flight info

Callsign QFA6009
Flight time N/A
Altitude 34000
Route KADOM A576 ATMAP M635 VTK B338 VMR B469 VPK M751 VKB A334 HTY W14 EPGOT/N0500F360 W14 PUT L515 OBMOG M770 KAKID M875 BUTOP/N0501F380 M875 TAPIS P173 DAVET B475 DOLOS/N0491F400 B449 DUKAN L850 ADEKI N644 LAGAS DCT SARPI UM10 TIVUG UL852 NEGEM L852 KOMAN DCT DEGET DCT ARSIN DCT SUBEN DCT AKINI T161 DEBHI DEBHI1C
Aircraft A35K/H-SDE2E3GHIJ3J4J5LM1ORWXY/LB1D1

Departure

Time 2026-05-01 12:54
Airport Sydney Kingsford Smith International Airport (YSSY)

Arrival

Time N/A
Airport Frankfurt Main Airport (EDDF)
Time Latitude Longitude Altitude Speed Heading
2026-05-01 12:22 -33.93833 151.16831 27 ft 0 kts 70°
2026-05-01 12:24 0.00000 0.00000 1068 ft 0 kts 355°
2026-05-01 12:25 -33.93833 151.16831 27 ft 0 kts 70°
2026-05-01 12:41 -33.93833 151.16832 27 ft 0 kts 70°
2026-05-01 12:42 -33.93832 151.16832 27 ft 0 kts 70°
2026-05-01 12:42 -33.93832 151.16833 27 ft 0 kts 70°
2026-05-01 12:42 -33.93839 151.16811 27 ft 4 kts 72°
2026-05-01 12:42 -33.93845 151.16780 27 ft 4 kts 83°
2026-05-01 12:43 -33.93844 151.16750 27 ft 4 kts 124°
2026-05-01 12:43 -33.93832 151.16739 24 ft 0 kts 165°
2026-05-01 12:43 -33.93854 151.16746 24 ft 1 kts 165°
2026-05-01 12:45 -33.93873 151.16753 27 ft 7 kts 162°
2026-05-01 12:45 -33.93940 151.16778 27 ft 12 kts 166°
2026-05-01 12:46 -33.94019 151.16802 27 ft 11 kts 166°
2026-05-01 12:46 -33.94025 151.16803 27 ft 0 kts 165°
2026-05-01 12:46 -33.94043 151.16813 27 ft 6 kts 148°
2026-05-01 12:46 -33.94048 151.16882 27 ft 15 kts 82°
2026-05-01 12:47 -33.94014 151.17039 26 ft 20 kts 74°
2026-05-01 12:47 -33.93992 151.17202 28 ft 18 kts 120°
2026-05-01 12:47 -33.94092 151.17255 27 ft 15 kts 166°
2026-05-01 12:47 -33.94192 151.17283 28 ft 15 kts 167°
2026-05-01 12:48 -33.94287 151.17308 29 ft 13 kts 167°
2026-05-01 12:48 -33.94374 151.17328 31 ft 15 kts 169°
2026-05-01 12:48 -33.94497 151.17359 32 ft 21 kts 167°
2026-05-01 12:48 -33.94654 151.17401 32 ft 24 kts 168°
2026-05-01 12:49 -33.94828 151.17447 27 ft 27 kts 167°
2026-05-01 12:49 -33.95011 151.17495 29 ft 26 kts 168°
2026-05-01 12:49 -33.95189 151.17541 28 ft 26 kts 168°
2026-05-01 12:49 -33.95366 151.17587 28 ft 25 kts 168°
2026-05-01 12:50 -33.95532 151.17630 27 ft 24 kts 168°
2026-05-01 12:50 -33.95685 151.17670 30 ft 21 kts 167°
2026-05-01 12:50 -33.95828 151.17706 29 ft 21 kts 168°
2026-05-01 12:50 -33.95974 151.17744 29 ft 21 kts 167°
2026-05-01 12:51 -33.96123 151.17784 30 ft 23 kts 169°
2026-05-01 12:51 -33.96282 151.17822 28 ft 23 kts 168°
2026-05-01 12:51 -33.96418 151.17876 29 ft 4 kts 133°
2026-05-01 12:52 -33.96435 151.17950 29 ft 14 kts 89°
2026-05-01 12:52 -33.96383 151.18049 30 ft 0 kts 354°
2026-05-01 12:52 -33.96382 151.18048 30 ft 1 kts 354°
2026-05-01 12:53 -33.96320 151.18036 29 ft 30 kts 347°
2026-05-01 12:53 -33.95854 151.17917 28 ft 105 kts 347°
2026-05-01 12:53 -33.94924 151.17675 28 ft 168 kts 348°
2026-05-01 12:54 -33.93646 151.17331 337 ft 198 kts 351°
2026-05-01 12:54 -33.90991 151.16960 2096 ft 198 kts 336°
2026-05-01 12:54 -33.89931 151.15844 2488 ft 215 kts 309°
2026-05-01 12:55 -33.88581 151.12311 2865 ft 251 kts 289°
2026-05-01 12:55 -33.88092 151.10247 3202 ft 262 kts 287°
2026-05-01 12:55 -33.87623 151.08110 3681 ft 266 kts 287°
2026-05-01 12:56 -33.87160 151.05939 4158 ft 269 kts 287°
2026-05-01 12:56 -33.86695 151.03740 4737 ft 273 kts 287°
2026-05-01 12:56 -33.86161 151.01310 5459 ft 4426 kts 287°
2026-05-01 12:56 -33.84926 150.96819 5644 ft 270 kts 290°
2026-05-01 12:58 -33.84913 150.96767 5659 ft 270 kts 291°
2026-05-01 12:58 -33.79496 150.79875 12009 ft 0 kts 291°
2026-05-01 12:59 -33.78395 150.74659 15361 ft 273 kts 279°
2026-05-01 12:59 -33.78117 150.72378 15720 ft 277 kts 279°
2026-05-01 12:59 -33.77503 150.67756 16511 ft 283 kts 280°
2026-05-01 13:00 -33.76813 150.63072 17346 ft 285 kts 281°
2026-05-01 13:00 -33.76336 150.60750 17619 ft 291 kts 295°
2026-05-01 13:01 -33.74463 150.56292 18000 ft 308 kts 297°
2026-05-01 13:01 -33.73485 150.53957 18171 ft 317 kts 297°
2026-05-01 13:01 -33.71369 150.49067 18347 ft 345 kts 298°
2026-05-01 13:02 -33.70204 150.46467 18354 ft 362 kts 299°
2026-05-01 13:07 -33.39371 149.79609 25409 ft 465 kts 299°
2026-05-01 13:07 -33.37793 149.76221 25728 ft 467 kts 299°
2026-05-01 13:07 -33.36206 149.72816 26030 ft 469 kts 299°
2026-05-01 13:08 -33.34612 149.69399 26347 ft 471 kts 299°
2026-05-01 13:08 -33.33011 149.65970 26667 ft 474 kts 298°
2026-05-01 13:08 -33.02189 148.99005 49881 ft 32000 kts 298°
2026-05-01 13:08 -31.83033 146.42229 96542 ft 0 kts 298°
2026-05-01 13:09 -28.60040 140.17074 99280 ft 32000 kts 298°
2026-05-01 13:09 -23.74454 133.18067 91647 ft 32000 kts 298°
2026-05-01 13:09 -21.13535 129.09954 89553 ft 32000 kts 298°
2026-05-01 13:10 -18.63685 124.30586 99280 ft 32000 kts 298°
2026-05-01 13:10 -14.93849 120.24359 86823 ft 32000 kts 298°
2026-05-01 13:10 -11.53700 118.54637 85943 ft 0 kts 298°